Time,TemperatureF,DewpointF,PressureIn,WindDirection,WindDirectionDegrees,WindSpeedMPH,WindSpeedGustMPH,Humidity,HourlyPrecipIn,Conditions,Clouds,dailyrainin,SoftwareType,DateUTC
2013-02-19 00:03:00,25.5,17.1,28.94,West,270,12.8,17.0,70,0.00,,---,0.00,VWS V14.01,2013-02-19 06:03:00,
2013-02-19 00:08:00,25.5,17.4,28.94,West,270,12.8,13.0,71,0.00,,---,0.00,VWS V14.01,2013-02-19 06:08:00,
2013-02-19 00:13:00,25.5,17.4,28.94,WSW,248,15.4,15.4,71,0.00,,---,0.00,VWS V14.01,2013-02-19 06:13:00,
2013-02-19 00:18:00,25.5,17.4,28.94,West,270,14.5,14.5,71,0.00,,---,0.00,VWS V14.01,2013-02-19 06:18:00,
2013-02-19 00:23:00,25.3,16.9,28.94,West,270,16.6,16.6,70,0.00,,---,0.00,VWS V14.01,2013-02-19 06:23:00,
2013-02-19 00:28:00,25.3,16.9,28.94,SW,225,12.5,15.2,70,0.00,,---,0.00,VWS V14.01,2013-02-19 06:28:00,
2013-02-19 00:33:00,25.3,16.9,28.94,West,270,11.0,16.8,70,0.00,,---,0.00,VWS V14.01,2013-02-19 06:33:00,
2013-02-19 00:38:00,25.2,16.4,28.97,WSW,248,12.3,12.3,69,0.00,,---,0.00,VWS V14.01,2013-02-19 06:38:00,
2013-02-19 00:43:00,25.2,16.1,28.97,NNW,338,15.4,15.4,68,0.00,,---,0.00,VWS V14.01,2013-02-19 06:43:00,
2013-02-19 00:48:00,25.0,15.6,28.97,West,270,17.5,17.5,67,0.00,,---,0.00,VWS V14.01,2013-02-19 06:48:00,
2013-02-19 00:53:00,24.6,14.9,28.97,West,270,12.5,12.5,66,0.00,,---,0.00,VWS V14.01,2013-02-19 06:53:00,
2013-02-19 00:58:00,24.4,14.7,28.97,WSW,248,19.2,19.2,66,0.00,,---,0.00,VWS V14.01,2013-02-19 06:58:00,
2013-02-19 01:03:00,24.4,14.7,28.97,West,270,15.2,17.7,66,0.00,,---,0.00,VWS V14.01,2013-02-19 07:03:00,
2013-02-19 01:08:00,24.4,14.7,28.97,West,270,22.2,22.2,66,0.00,,---,0.00,VWS V14.01,2013-02-19 07:08:00,
2013-02-19 01:13:00,24.4,14.7,28.97,NW,315,11.0,11.0,66,0.00,,---,0.00,VWS V14.01,2013-02-19 07:13:00,
2013-02-19 01:18:00,24.4,15.1,28.97,WSW,248,15.9,15.9,67,0.00,,---,0.00,VWS V14.01,2013-02-19 07:18:00,
2013-02-19 01:23:00,24.4,15.4,28.97,WSW,248,8.1,13.0,68,0.00,,---,0.00,VWS V14.01,2013-02-19 07:23:00,
2013-02-19 01:28:00,24.4,15.4,28.97,West,270,10.1,17.7,68,0.00,,---,0.00,VWS V14.01,2013-02-19 07:28:00,
2013-02-19 01:33:00,24.1,14.7,28.97,West,270,17.7,17.7,67,0.00,,---,0.00,VWS V14.01,2013-02-19 07:33:00,
2013-02-19 01:38:00,23.7,14.0,28.97,NW,315,8.5,12.5,66,0.00,,---,0.00,VWS V14.01,2013-02-19 07:38:00,
2013-02-19 01:43:00,23.4,13.0,28.97,WNW,292,15.2,19.0,64,0.00,,---,0.00,VWS V14.01,2013-02-19 07:43:00,
2013-02-19 01:48:00,23.4,13.0,28.97,WNW,292,12.5,15.4,64,0.00,,---,0.00,VWS V14.01,2013-02-19 07:48:00,
2013-02-19 01:53:00,23.2,12.5,29.00,NW,315,10.5,14.1,63,0.00,,---,0.00,VWS V14.01,2013-02-19 07:53:00,
2013-02-19 01:58:00,23.2,12.8,29.00,NW,315,10.7,11.0,64,0.00,,---,0.00,VWS V14.01,2013-02-19 07:58:00,
2013-02-19 02:03:00,23.2,13.2,29.00,NW,315,10.1,10.1,65,0.00,,---,0.00,VWS V14.01,2013-02-19 08:03:00,
2013-02-19 02:08:00,23.2,13.5,29.00,NW,315,9.4,9.4,66,0.00,,---,0.00,VWS V14.01,2013-02-19 08:08:00,
2013-02-19 02:13:00,23.2,13.5,29.00,SSW,202,14.5,14.5,66,0.00,,---,0.00,VWS V14.01,2013-02-19 08:13:00,
2013-02-19 02:18:00,23.0,13.7,29.00,WSW,248,13.0,13.0,67,0.00,,---,0.00,VWS V14.01,2013-02-19 08:18:00,
2013-02-19 02:23:00,22.8,14.2,29.00,West,270,5.8,6.0,69,0.00,,---,0.00,VWS V14.01,2013-02-19 08:23:00,
2013-02-19 02:28:00,22.6,13.7,29.00,NW,315,8.5,12.8,68,0.00,,---,0.00,VWS V14.01,2013-02-19 08:28:00,
2013-02-19 02:33:00,22.3,12.3,29.00,WNW,292,13.2,13.2,65,0.00,,---,0.00,VWS V14.01,2013-02-19 08:33:00,
2013-02-19 02:38:00,22.1,11.8,29.00,WSW,248,16.1,16.1,64,0.00,,---,0.00,VWS V14.01,2013-02-19 08:38:00,
2013-02-19 02:43:00,22.1,11.4,29.00,NW,315,12.3,12.3,63,0.00,,---,0.00,VWS V14.01,2013-02-19 08:43:00,
2013-02-19 02:48:00,22.3,12.3,29.00,WSW,248,9.8,10.1,65,0.00,,---,0.00,VWS V14.01,2013-02-19 08:48:00,
2013-02-19 02:53:00,22.1,12.1,29.00,WNW,292,10.5,16.8,65,0.00,,---,0.00,VWS V14.01,2013-02-19 08:53:00,
2013-02-19 02:58:00,21.9,11.6,29.00,West,270,6.5,20.1,64,0.00,,---,0.00,VWS V14.01,2013-02-19 08:58:00,
2013-02-19 03:03:00,21.9,11.6,29.00,West,270,12.5,21.9,64,0.00,,---,0.00,VWS V14.01,2013-02-19 09:03:00,
2013-02-19 03:08:00,21.9,11.6,29.00,WSW,248,12.1,12.1,64,0.00,,---,0.00,VWS V14.01,2013-02-19 09:08:00,
2013-02-19 03:13:00,21.7,11.4,29.00,West,270,3.8,13.2,64,0.00,,---,0.00,VWS V14.01,2013-02-19 09:13:00,
2013-02-19 03:18:00,21.7,11.8,29.00,WNW,292,14.3,14.3,65,0.00,,---,0.00,VWS V14.01,2013-02-19 09:18:00,
2013-02-19 03:23:00,21.7,11.8,29.00,WNW,292,14.1,14.1,65,0.00,,---,0.00,VWS V14.01,2013-02-19 09:23:00,
2013-02-19 03:28:00,21.7,12.1,29.00,WNW,292,5.8,10.5,66,0.00,,---,0.00,VWS V14.01,2013-02-19 09:28:00,
2013-02-19 03:33:00,21.7,12.1,29.00,WSW,248,11.0,11.0,66,0.00,,---,0.00,VWS V14.01,2013-02-19 09:33:00,
2013-02-19 03:38:00,21.7,12.1,29.00,WNW,292,17.9,17.9,66,0.00,,---,0.00,VWS V14.01,2013-02-19 09:38:00,
2013-02-19 03:43:00,21.6,12.0,29.00,West,270,7.8,7.8,66,0.00,,---,0.00,VWS V14.01,2013-02-19 09:43:00,
2013-02-19 03:48:00,21.6,12.3,29.00,West,270,10.7,10.7,67,0.00,,---,0.00,VWS V14.01,2013-02-19 09:48:00,
2013-02-19 03:53:00,21.6,12.6,29.00,West,270,15.2,15.2,68,0.00,,---,0.00,VWS V14.01,2013-02-19 09:53:00,
2013-02-19 03:58:00,21.6,12.6,29.00,West,270,9.8,9.8,68,0.00,,---,0.00,VWS V14.01,2013-02-19 09:58:00,
2013-02-19 04:03:00,21.4,12.1,29.00,WSW,248,7.6,8.1,67,0.00,,---,0.00,VWS V14.01,2013-02-19 10:03:00,
2013-02-19 04:08:00,21.4,12.1,29.00,West,270,13.0,13.4,67,0.00,,---,0.00,VWS V14.01,2013-02-19 10:08:00,
2013-02-19 04:13:00,21.2,11.3,29.00,West,270,10.5,10.5,65,0.00,,---,0.00,VWS V14.01,2013-02-19 10:13:00,
2013-02-19 04:18:00,21.2,11.3,29.00,WSW,248,8.7,10.5,65,0.00,,---,0.00,VWS V14.01,2013-02-19 10:18:00,
2013-02-19 04:23:00,21.0,10.8,29.03,WNW,292,10.3,10.3,64,0.00,,---,0.00,VWS V14.01,2013-02-19 10:23:00,
2013-02-19 04:28:00,21.0,10.8,29.03,West,270,6.3,6.3,64,0.00,,---,0.00,VWS V14.01,2013-02-19 10:28:00,
2013-02-19 04:34:00,20.8,10.6,29.03,WSW,248,12.5,18.1,64,0.00,,---,0.00,VWS V14.01,2013-02-19 10:34:00,
2013-02-19 04:39:00,20.8,10.6,29.03,West,270,6.0,6.0,64,0.00,,---,0.00,VWS V14.01,2013-02-19 10:39:00,
2013-02-19 04:44:00,20.8,10.9,29.03,West,270,20.6,20.6,65,0.00,,---,0.00,VWS V14.01,2013-02-19 10:44:00,
2013-02-19 04:49:00,20.7,10.4,29.03,WSW,248,10.7,10.7,64,0.00,,---,0.00,VWS V14.01,2013-02-19 10:49:00,
2013-02-19 04:54:00,20.5,10.2,29.03,West,270,10.7,10.7,64,0.00,,---,0.00,VWS V14.01,2013-02-19 10:54:00,
2013-02-19 04:59:00,20.5,10.2,29.03,WSW,248,8.1,10.3,64,0.00,,---,0.00,VWS V14.01,2013-02-19 10:59:00,
2013-02-19 05:04:00,20.5,10.2,29.03,West,270,12.5,15.4,64,0.00,,---,0.00,VWS V14.01,2013-02-19 11:04:00,
2013-02-19 05:09:00,20.3,10.1,29.03,West,270,16.1,16.1,64,0.00,,---,0.00,VWS V14.01,2013-02-19 11:09:00,
2013-02-19 05:14:00,20.3,10.4,29.03,West,270,10.3,13.6,65,0.00,,---,0.00,VWS V14.01,2013-02-19 11:14:00,
2013-02-19 05:19:00,20.3,10.8,29.03,West,270,8.5,10.3,66,0.00,,---,0.00,VWS V14.01,2013-02-19 11:19:00,
2013-02-19 05:24:00,20.3,10.8,29.03,NNW,338,8.7,10.5,66,0.00,,---,0.00,VWS V14.01,2013-02-19 11:24:00,
2013-02-19 05:29:00,20.3,10.4,29.03,West,270,13.2,13.2,65,0.00,,---,0.00,VWS V14.01,2013-02-19 11:29:00,
2013-02-19 05:34:00,20.1,10.3,29.03,WNW,292,6.7,19.7,65,0.00,,---,0.00,VWS V14.01,2013-02-19 11:34:00,
2013-02-19 05:39:00,20.1,10.9,29.03,WNW,292,5.4,8.7,67,0.00,,---,0.00,VWS V14.01,2013-02-19 11:39:00,
2013-02-19 05:44:00,20.1,10.9,29.03,WSW,248,13.6,13.6,67,0.00,,---,0.00,VWS V14.01,2013-02-19 11:44:00,
2013-02-19 05:49:00,19.9,10.4,29.06,West,270,10.3,15.7,66,0.00,,---,0.00,VWS V14.01,2013-02-19 11:49:00,
2013-02-19 05:54:00,19.8,9.6,29.06,NNW,338,10.5,15.4,64,0.00,,---,0.00,VWS V14.01,2013-02-19 11:54:00,
2013-02-19 05:59:00,19.6,9.1,29.06,WSW,248,18.6,18.6,63,0.00,,---,0.00,VWS V14.01,2013-02-19 11:59:00,
2013-02-19 06:04:00,19.2,9.1,29.06,WSW,248,12.3,12.3,64,0.00,,---,0.00,VWS V14.01,2013-02-19 12:04:00,
2013-02-19 06:09:00,19.0,8.9,29.06,NW,315,7.6,7.6,64,0.00,,---,0.00,VWS V14.01,2013-02-19 12:09:00,
2013-02-19 06:14:00,18.1,7.0,29.06,WNW,292,11.0,11.0,61,0.00,,---,0.00,VWS V14.01,2013-02-19 12:14:00,
2013-02-19 06:19:00,18.0,6.8,29.06,NNW,338,7.6,8.1,61,0.00,,---,0.00,VWS V14.01,2013-02-19 12:19:00,
2013-02-19 06:24:00,17.8,7.0,29.06,WNW,292,9.8,12.5,62,0.00,,---,0.00,VWS V14.01,2013-02-19 12:24:00,
2013-02-19 06:29:00,17.4,6.6,29.06,West,270,7.2,8.1,62,0.00,,---,0.00,VWS V14.01,2013-02-19 12:29:00,
2013-02-19 06:34:00,16.9,6.1,29.09,West,270,13.6,13.6,62,0.00,,---,0.00,VWS V14.01,2013-02-19 12:34:00,
2013-02-19 06:39:00,16.5,5.4,29.09,WNW,292,8.7,8.7,61,0.00,,---,0.00,VWS V14.01,2013-02-19 12:39:00,
2013-02-19 06:44:00,16.0,4.6,29.09,NW,315,11.0,13.2,60,0.00,,---,0.00,VWS V14.01,2013-02-19 12:44:00,
2013-02-19 06:49:00,15.8,4.4,29.09,WSW,248,9.8,9.8,60,0.00,,---,0.00,VWS V14.01,2013-02-19 12:49:00,
2013-02-19 06:54:00,15.6,4.2,29.09,West,270,3.8,5.8,60,0.00,,---,0.00,VWS V14.01,2013-02-19 12:54:00,
2013-02-19 06:59:00,15.8,4.8,29.09,West,270,15.2,15.2,61,0.00,,---,0.00,VWS V14.01,2013-02-19 12:59:00,
2013-02-19 07:04:00,15.4,4.4,29.09,WNW,292,5.6,5.6,61,0.00,,---,0.00,VWS V14.01,2013-02-19 13:04:00,
2013-02-19 07:09:00,15.4,4.4,29.09,NW,315,12.5,12.5,61,0.00,,---,0.00,VWS V14.01,2013-02-19 13:09:00,
2013-02-19 07:14:00,15.6,4.6,29.09,NNE,22,10.5,13.6,61,0.00,,---,0.00,VWS V14.01,2013-02-19 13:14:00,
2013-02-19 07:19:00,15.6,4.6,29.09,West,270,12.8,12.8,61,0.00,,---,0.00,VWS V14.01,2013-02-19 13:19:00,
2013-02-19 07:24:00,15.4,4.4,29.09,West,270,15.4,24.4,61,0.00,,---,0.00,VWS V14.01,2013-02-19 13:24:00,
2013-02-19 07:29:00,15.6,4.6,29.09,West,270,12.5,12.5,61,0.00,,---,0.00,VWS V14.01,2013-02-19 13:29:00,
2013-02-19 07:34:00,16.0,4.9,29.09,West,270,8.5,8.5,61,0.00,,---,0.00,VWS V14.01,2013-02-19 13:34:00,
2013-02-19 07:39:00,16.0,4.6,29.09,West,270,14.3,14.3,60,0.00,,---,0.00,VWS V14.01,2013-02-19 13:39:00,
2013-02-19 07:44:00,16.2,4.7,29.09,North,0,13.4,13.4,60,0.00,,---,0.00,VWS V14.01,2013-02-19 13:44:00,
2013-02-19 07:49:00,16.5,5.4,29.09,WSW,248,13.0,13.0,61,0.00,,---,0.00,VWS V14.01,2013-02-19 13:49:00,
2013-02-19 07:54:00,16.3,4.9,29.09,NW,315,9.8,9.8,60,0.00,,---,0.00,VWS V14.01,2013-02-19 13:54:00,
2013-02-19 08:00:00,16.3,4.9,29.09,West,270,17.7,17.7,60,0.00,,---,0.00,VWS V14.01,2013-02-19 14:00:00,
2013-02-19 08:05:00,16.5,5.4,29.12,NNW,338,5.8,7.6,61,0.00,,---,0.00,VWS V14.01,2013-02-19 14:05:00,
2013-02-19 08:10:00,16.7,5.6,29.12,West,270,12.3,12.3,61,0.00,,---,0.00,VWS V14.01,2013-02-19 14:10:00,
2013-02-19 08:15:00,16.7,5.6,29.12,West,270,8.5,8.7,61,0.00,,---,0.00,VWS V14.01,2013-02-19 14:15:00,
2013-02-19 08:20:00,16.9,5.8,29.12,West,270,7.6,8.7,61,0.00,,---,0.00,VWS V14.01,2013-02-19 14:20:00,
2013-02-19 08:25:00,17.4,6.6,29.12,West,270,8.5,14.3,62,0.00,,---,0.00,VWS V14.01,2013-02-19 14:25:00,
2013-02-19 08:30:00,17.6,7.2,29.12,NW,315,8.7,10.5,63,0.00,,---,0.00,VWS V14.01,2013-02-19 14:30:00,
2013-02-19 08:35:00,17.6,7.2,29.12,WSW,248,10.7,10.7,63,0.00,,---,0.00,VWS V14.01,2013-02-19 14:35:00,
2013-02-19 08:40:00,17.6,7.5,29.12,WSW,248,7.8,12.1,64,0.00,,---,0.00,VWS V14.01,2013-02-19 14:40:00,
2013-02-19 08:45:00,17.4,7.7,29.12,West,270,11.0,11.0,65,0.00,,---,0.00,VWS V14.01,2013-02-19 14:45:00,
2013-02-19 08:50:00,17.2,7.2,29.12,West,270,3.6,3.6,64,0.00,,---,0.00,VWS V14.01,2013-02-19 14:50:00,
2013-02-19 08:55:00,17.1,6.7,29.12,WSW,248,12.8,12.8,63,0.00,,---,0.00,VWS V14.01,2013-02-19 14:55:00,
2013-02-19 09:00:00,16.9,6.5,29.12,West,270,13.0,13.0,63,0.00,,---,0.00,VWS V14.01,2013-02-19 15:00:00,
2013-02-19 09:05:00,16.7,6.0,29.12,WNW,292,10.5,13.0,62,0.00,,---,0.00,VWS V14.01,2013-02-19 15:05:00,
2013-02-19 09:10:00,16.9,5.4,29.12,West,270,15.4,15.4,60,0.00,,---,0.00,VWS V14.01,2013-02-19 15:10:00,
2013-02-19 09:15:00,16.9,5.0,29.12,WNW,292,15.4,15.4,59,0.00,,---,0.00,VWS V14.01,2013-02-19 15:15:00,
2013-02-19 09:20:00,17.2,5.4,29.14,West,270,19.9,19.9,59,0.00,,---,0.00,VWS V14.01,2013-02-19 15:20:00,
2013-02-19 09:25:00,17.6,5.7,29.14,West,270,10.7,10.7,59,0.00,,---,0.00,VWS V14.01,2013-02-19 15:25:00,
2013-02-19 09:31:00,17.4,5.6,29.14,West,270,10.5,12.8,59,0.00,,---,0.00,VWS V14.01,2013-02-19 15:31:00,
2013-02-19 09:36:00,17.4,5.6,29.14,WSW,248,10.1,10.1,59,0.00,,---,0.00,VWS V14.01,2013-02-19 15:36:00,
2013-02-19 09:41:00,17.6,5.3,29.14,West,270,9.8,11.4,58,0.00,,---,0.00,VWS V14.01,2013-02-19 15:41:00,
2013-02-19 09:46:00,18.3,6.4,29.14,West,270,11.0,11.0,59,0.00,,---,0.00,VWS V14.01,2013-02-19 15:46:00,
2013-02-19 09:51:00,17.4,4.8,29.14,WSW,248,15.4,15.4,57,0.00,,---,0.00,VWS V14.01,2013-02-19 15:51:00,
2013-02-19 09:56:00,17.4,4.8,29.14,WNW,292,22.6,22.6,57,0.00,,---,0.00,VWS V14.01,2013-02-19 15:56:00,
2013-02-19 10:01:00,17.4,4.8,29.14,WNW,292,17.9,17.9,57,0.00,,---,0.00,VWS V14.01,2013-02-19 16:01:00,
2013-02-19 10:06:00,17.2,4.2,29.14,West,270,15.4,19.5,56,0.00,,---,0.00,VWS V14.01,2013-02-19 16:06:00,
2013-02-19 10:11:00,17.2,4.6,29.14,NNW,338,12.1,12.1,57,0.00,,---,0.00,VWS V14.01,2013-02-19 16:11:00,
2013-02-19 10:16:00,17.8,5.1,29.14,WNW,292,12.3,19.5,57,0.00,,---,0.00,VWS V14.01,2013-02-19 16:16:00,
2013-02-19 10:21:00,17.8,4.8,29.17,WNW,292,9.6,14.3,56,0.00,,---,0.00,VWS V14.01,2013-02-19 16:21:00,
2013-02-19 10:26:00,18.3,5.7,29.17,WNW,292,10.1,10.1,57,0.00,,---,0.00,VWS V14.01,2013-02-19 16:26:00,
2013-02-19 10:32:00,17.8,4.8,29.17,WSW,248,15.2,19.2,56,0.00,,---,0.00,VWS V14.01,2013-02-19 16:32:00,
2013-02-19 10:37:00,17.8,4.8,29.17,West,270,11.0,14.8,56,0.00,,---,0.00,VWS V14.01,2013-02-19 16:37:00,
2013-02-19 10:42:00,18.0,4.9,29.17,West,270,10.5,14.8,56,0.00,,---,0.00,VWS V14.01,2013-02-19 16:42:00,
2013-02-19 10:47:00,18.3,5.3,29.17,West,270,13.0,14.3,56,0.00,,---,0.00,VWS V14.01,2013-02-19 16:47:00,
2013-02-19 10:52:00,18.1,5.1,29.17,WNW,292,7.8,11.4,56,0.00,,---,0.00,VWS V14.01,2013-02-19 16:52:00,
2013-02-19 10:57:00,18.3,5.3,29.17,West,270,13.6,13.6,56,0.00,,---,0.00,VWS V14.01,2013-02-19 16:57:00,
2013-02-19 11:02:00,18.3,4.9,29.17,West,270,10.7,10.7,55,0.00,,---,0.00,VWS V14.01,2013-02-19 17:02:00,
2013-02-19 11:07:00,18.1,4.7,29.17,WSW,248,12.5,19.0,55,0.00,,---,0.00,VWS V14.01,2013-02-19 17:07:00,
2013-02-19 11:12:00,18.5,5.0,29.17,West,270,12.8,12.8,55,0.00,,---,0.00,VWS V14.01,2013-02-19 17:12:00,
2013-02-19 11:17:00,18.7,5.6,29.17,West,270,13.9,13.9,56,0.00,,---,0.00,VWS V14.01,2013-02-19 17:17:00,
2013-02-19 11:22:00,18.9,5.8,29.20,WSW,248,15.2,21.9,56,0.00,,---,0.00,VWS V14.01,2013-02-19 17:22:00,
2013-02-19 11:27:00,18.3,4.9,29.20,NW,315,9.8,15.4,55,0.00,,---,0.00,VWS V14.01,2013-02-19 17:27:00,
2013-02-19 11:32:00,18.5,5.0,29.20,South,180,12.1,12.1,55,0.00,,---,0.00,VWS V14.01,2013-02-19 17:32:00,
2013-02-19 11:37:00,18.7,5.2,29.20,West,270,10.3,10.3,55,0.00,,---,0.00,VWS V14.01,2013-02-19 17:37:00,
2013-02-19 11:42:00,19.0,5.9,29.20,WNW,292,6.5,19.5,56,0.00,,---,0.00,VWS V14.01,2013-02-19 17:42:00,
2013-02-19 11:47:00,18.7,5.6,29.20,WSW,248,15.7,15.7,56,0.00,,---,0.00,VWS V14.01,2013-02-19 17:47:00,
2013-02-19 11:52:00,19.0,5.9,29.17,WNW,292,7.8,7.8,56,0.00,,---,0.00,VWS V14.01,2013-02-19 17:52:00,
2013-02-19 11:57:00,19.6,6.1,29.17,WNW,292,6.5,12.3,55,0.00,,---,0.00,VWS V14.01,2013-02-19 17:57:00,
2013-02-19 12:02:00,19.9,6.4,29.17,NW,315,10.7,10.7,55,0.00,,---,0.00,VWS V14.01,2013-02-19 18:02:00,
2013-02-19 12:07:00,20.3,7.1,29.17,WSW,248,11.0,11.0,56,0.00,,---,0.00,VWS V14.01,2013-02-19 18:07:00,
2013-02-19 12:12:00,20.7,7.5,29.17,WSW,248,7.4,7.4,56,0.00,,---,0.00,VWS V14.01,2013-02-19 18:12:00,
2013-02-19 12:17:00,20.8,7.6,29.17,West,270,7.8,12.5,56,0.00,,---,0.00,VWS V14.01,2013-02-19 18:17:00,
2013-02-19 12:22:00,20.7,7.1,29.20,WNW,292,13.9,13.9,55,0.00,,---,0.00,VWS V14.01,2013-02-19 18:22:00,
2013-02-19 12:27:00,20.5,6.9,29.20,West,270,11.0,11.0,55,0.00,,---,0.00,VWS V14.01,2013-02-19 18:27:00,
2013-02-19 12:32:00,20.7,7.1,29.20,NW,315,16.8,16.8,55,0.00,,---,0.00,VWS V14.01,2013-02-19 18:32:00,
2013-02-19 12:37:00,20.7,6.7,29.20,West,270,13.0,13.0,54,0.00,,---,0.00,VWS V14.01,2013-02-19 18:37:00,
2013-02-19 12:42:00,20.7,6.7,29.20,NW,315,12.3,13.6,54,0.00,,---,0.00,VWS V14.01,2013-02-19 18:42:00,
2013-02-19 12:47:00,20.3,6.3,29.20,WSW,248,13.4,17.7,54,0.00,,---,0.00,VWS V14.01,2013-02-19 18:47:00,
2013-02-19 12:52:00,20.5,6.9,29.20,NW,315,9.8,9.8,55,0.00,,---,0.00,VWS V14.01,2013-02-19 18:52:00,
2013-02-19 12:58:00,20.7,6.7,29.20,WNW,292,13.0,13.0,54,0.00,,---,0.00,VWS V14.01,2013-02-19 18:58:00,
2013-02-19 13:02:00,20.7,6.7,29.20,NNW,338,4.7,11.9,54,0.00,,---,0.00,VWS V14.01,2013-02-19 19:02:00,
2013-02-19 13:08:00,21.4,7.3,29.20,WSW,248,15.4,18.1,54,0.00,,---,0.00,VWS V14.01,2013-02-19 19:08:00,
2013-02-19 13:12:00,21.4,7.3,29.20,West,270,17.2,17.2,54,0.00,,---,0.00,VWS V14.01,2013-02-19 19:12:00,
2013-02-19 13:18:00,21.7,8.1,29.20,West,270,15.4,15.4,55,0.00,,---,0.00,VWS V14.01,2013-02-19 19:18:00,
2013-02-19 13:23:00,21.7,8.1,29.20,WSW,248,12.5,12.5,55,0.00,,---,0.00,VWS V14.01,2013-02-19 19:23:00,
2013-02-19 13:28:00,22.5,8.8,29.20,WNW,292,12.5,12.5,55,0.00,,---,0.00,VWS V14.01,2013-02-19 19:28:00,
2013-02-19 13:33:00,22.6,8.9,29.20,WNW,292,17.5,17.5,55,0.00,,---,0.00,VWS V14.01,2013-02-19 19:33:00,
2013-02-19 13:38:00,22.8,9.1,29.20,West,270,9.0,16.1,55,0.00,,---,0.00,VWS V14.01,2013-02-19 19:38:00,
2013-02-19 13:43:00,22.8,9.1,29.20,WNW,292,9.8,20.1,55,0.00,,---,0.00,VWS V14.01,2013-02-19 19:43:00,
2013-02-19 13:48:00,22.8,9.1,29.20,North,0,8.7,8.7,55,0.00,,---,0.00,VWS V14.01,2013-02-19 19:48:00,
2013-02-19 13:53:00,22.5,8.8,29.20,WSW,248,11.0,11.0,55,0.00,,---,0.00,VWS V14.01,2013-02-19 19:53:00,
2013-02-19 13:58:00,22.3,8.2,29.20,WSW,248,6.5,12.3,54,0.00,,---,0.00,VWS V14.01,2013-02-19 19:58:00,
2013-02-19 14:03:00,22.6,8.9,29.20,West,270,10.7,11.0,55,0.00,,---,0.00,VWS V14.01,2013-02-19 20:03:00,
2013-02-19 14:08:00,22.6,8.9,29.20,West,270,6.0,8.7,55,0.00,,---,0.00,VWS V14.01,2013-02-19 20:08:00,
2013-02-19 14:13:00,22.8,8.7,29.20,NNW,338,7.4,15.2,54,0.00,,---,0.00,VWS V14.01,2013-02-19 20:13:00,
2013-02-19 14:18:00,23.4,9.2,29.20,NW,315,7.4,13.2,54,0.00,,---,0.00,VWS V14.01,2013-02-19 20:18:00,
2013-02-19 14:23:00,23.4,9.2,29.20,West,270,16.8,16.8,54,0.00,,---,0.00,VWS V14.01,2013-02-19 20:23:00,
2013-02-19 14:28:00,23.5,9.4,29.20,SSW,202,10.3,15.9,54,0.00,,---,0.00,VWS V14.01,2013-02-19 20:28:00,
2013-02-19 14:33:00,23.5,8.9,29.20,SW,225,13.0,15.4,53,0.00,,---,0.00,VWS V14.01,2013-02-19 20:33:00,
2013-02-19 14:38:00,23.7,9.5,29.20,West,270,10.7,10.7,54,0.00,,---,0.00,VWS V14.01,2013-02-19 20:38:00,
2013-02-19 14:43:00,23.7,9.5,29.20,West,270,17.2,17.2,54,0.00,,---,0.00,VWS V14.01,2013-02-19 20:43:00,
2013-02-19 14:48:00,23.9,9.7,29.20,West,270,9.8,9.8,54,0.00,,---,0.00,VWS V14.01,2013-02-19 20:48:00,
2013-02-19 14:53:00,23.9,9.3,29.20,West,270,15.2,15.2,53,0.00,,---,0.00,VWS V14.01,2013-02-19 20:53:00,
2013-02-19 14:58:00,23.9,9.7,29.20,West,270,10.7,23.0,54,0.00,,---,0.00,VWS V14.01,2013-02-19 20:58:00,
2013-02-19 15:04:00,23.7,9.1,29.20,WSW,248,10.5,11.0,53,0.00,,---,0.00,VWS V14.01,2013-02-19 21:04:00,
2013-02-19 15:09:00,23.9,9.7,29.20,West,270,12.5,12.5,54,0.00,,---,0.00,VWS V14.01,2013-02-19 21:09:00,
2013-02-19 15:14:00,23.9,9.7,29.20,West,270,12.3,13.2,54,0.00,,---,0.00,VWS V14.01,2013-02-19 21:14:00,
2013-02-19 15:19:00,23.7,9.1,29.23,NW,315,12.8,25.5,53,0.00,,---,0.00,VWS V14.01,2013-02-19 21:19:00,
2013-02-19 15:24:00,23.4,8.8,29.23,NW,315,10.3,10.3,53,0.00,,---,0.00,VWS V14.01,2013-02-19 21:24:00,
2013-02-19 15:29:00,23.4,8.8,29.23,WSW,248,13.4,13.4,53,0.00,,---,0.00,VWS V14.01,2013-02-19 21:29:00,
2013-02-19 15:34:00,23.5,8.9,29.23,NNW,338,13.2,13.2,53,0.00,,---,0.00,VWS V14.01,2013-02-19 21:34:00,
2013-02-19 15:39:00,23.7,9.1,29.23,NNW,338,17.5,17.5,53,0.00,,---,0.00,VWS V14.01,2013-02-19 21:39:00,
2013-02-19 15:44:00,23.7,9.1,29.23,West,270,14.3,14.3,53,0.00,,---,0.00,VWS V14.01,2013-02-19 21:44:00,
2013-02-19 15:49:00,23.7,9.1,29.23,WSW,248,12.5,12.5,53,0.00,,---,0.00,VWS V14.01,2013-02-19 21:49:00,
2013-02-19 15:54:00,23.7,8.7,29.23,WNW,292,10.3,10.5,52,0.00,,---,0.00,VWS V14.01,2013-02-19 21:54:00,
2013-02-19 15:59:00,23.9,8.9,29.23,WNW,292,17.7,17.7,52,0.00,,---,0.00,VWS V14.01,2013-02-19 21:59:00,
2013-02-19 16:04:00,23.7,8.7,29.26,West,270,8.5,18.8,52,0.00,,---,0.00,VWS V14.01,2013-02-19 22:04:00,
2013-02-19 16:09:00,23.7,8.7,29.26,WSW,248,11.2,15.9,52,0.00,,---,0.00,VWS V14.01,2013-02-19 22:09:00,
2013-02-19 16:14:00,23.9,9.3,29.26,West,270,22.6,22.6,53,0.00,,---,0.00,VWS V14.01,2013-02-19 22:14:00,
2013-02-19 16:19:00,23.7,8.7,29.26,West,270,9.6,15.7,52,0.00,,---,0.00,VWS V14.01,2013-02-19 22:19:00,
2013-02-19 16:24:00,23.7,9.1,29.26,WSW,248,8.7,8.7,53,0.00,,---,0.00,VWS V14.01,2013-02-19 22:24:00,
2013-02-19 16:29:00,23.7,8.7,29.26,WNW,292,15.4,15.4,52,0.00,,---,0.00,VWS V14.01,2013-02-19 22:29:00,
2013-02-19 16:34:00,23.5,8.5,29.26,West,270,10.1,11.0,52,0.00,,---,0.00,VWS V14.01,2013-02-19 22:34:00,
2013-02-19 16:40:00,23.7,9.1,29.26,WNW,292,8.1,10.7,53,0.00,,---,0.00,VWS V14.01,2013-02-19 22:40:00,
2013-02-19 16:45:00,23.7,9.1,29.26,WSW,248,15.2,15.2,53,0.00,,---,0.00,VWS V14.01,2013-02-19 22:45:00,
2013-02-19 16:50:00,23.5,8.5,29.26,WNW,292,9.4,12.8,52,0.00,,---,0.00,VWS V14.01,2013-02-19 22:50:00,
2013-02-19 16:55:00,23.4,8.4,29.26,NW,315,7.8,15.4,52,0.00,,---,0.00,VWS V14.01,2013-02-19 22:55:00,
2013-02-19 17:00:00,23.0,8.0,29.26,West,270,22.6,28.6,52,0.00,,---,0.00,VWS V14.01,2013-02-19 23:00:00,
2013-02-19 17:05:00,23.0,8.0,29.26,West,270,9.6,10.3,52,0.00,,---,0.00,VWS V14.01,2013-02-19 23:05:00,
2013-02-19 17:10:00,23.0,8.4,29.29,WNW,292,11.0,15.2,53,0.00,,---,0.00,VWS V14.01,2013-02-19 23:10:00,
2013-02-19 17:15:00,23.0,8.4,29.29,West,270,6.9,6.9,53,0.00,,---,0.00,VWS V14.01,2013-02-19 23:15:00,
2013-02-19 17:20:00,22.8,8.3,29.29,WSW,248,10.7,10.7,53,0.00,,---,0.00,VWS V14.01,2013-02-19 23:20:00,
2013-02-19 17:25:00,22.8,8.3,29.29,WNW,292,14.8,14.8,53,0.00,,---,0.00,VWS V14.01,2013-02-19 23:25:00,
2013-02-19 17:30:00,22.6,8.1,29.29,West,270,15.2,15.2,53,0.00,,---,0.00,VWS V14.01,2013-02-19 23:30:00,
2013-02-19 17:35:00,22.6,8.1,29.29,West,270,9.6,9.6,53,0.00,,---,0.00,VWS V14.01,2013-02-19 23:35:00,
2013-02-19 17:40:00,22.5,7.9,29.29,WNW,292,10.3,12.5,53,0.00,,---,0.00,VWS V14.01,2013-02-19 23:40:00,
2013-02-19 17:45:00,22.5,7.9,29.29,WSW,248,14.3,14.3,53,0.00,,---,0.00,VWS V14.01,2013-02-19 23:45:00,
2013-02-19 17:50:00,22.3,7.8,29.29,NNW,338,7.6,10.1,53,0.00,,---,0.00,VWS V14.01,2013-02-19 23:50:00,
2013-02-19 17:55:00,22.3,7.8,29.29,WNW,292,10.3,13.0,53,0.00,,---,0.00,VWS V14.01,2013-02-19 23:55:00,
2013-02-19 18:00:00,22.3,7.8,29.29,WSW,248,10.7,10.7,53,0.00,,---,0.00,VWS V14.01,2013-02-20 00:00:00,
2013-02-19 18:05:00,22.1,7.6,29.29,WNW,292,12.1,12.1,53,0.00,,---,0.00,VWS V14.01,2013-02-20 00:05:00,
2013-02-19 18:10:00,22.1,7.6,29.29,West,270,7.8,11.2,53,0.00,,---,0.00,VWS V14.01,2013-02-20 00:10:00,
2013-02-19 18:15:00,22.1,7.6,29.29,WSW,248,12.8,12.8,53,0.00,,---,0.00,VWS V14.01,2013-02-20 00:15:00,
2013-02-19 18:21:00,22.1,7.6,29.29,WNW,292,13.2,13.2,53,0.00,,---,0.00,VWS V14.01,2013-02-20 00:21:00,
2013-02-19 18:26:00,21.9,7.4,29.29,WNW,292,7.4,7.4,53,0.00,,---,0.00,VWS V14.01,2013-02-20 00:26:00,
2013-02-19 18:31:00,21.9,7.4,29.29,WNW,292,12.5,17.7,53,0.00,,---,0.00,VWS V14.01,2013-02-20 00:31:00,
2013-02-19 18:36:00,21.7,7.3,29.29,WSW,248,6.3,16.1,53,0.00,,---,0.00,VWS V14.01,2013-02-20 00:36:00,
2013-02-19 18:41:00,21.7,7.3,29.29,West,270,13.2,13.2,53,0.00,,---,0.00,VWS V14.01,2013-02-20 00:41:00,
2013-02-19 18:46:00,21.6,7.1,29.29,West,270,8.1,8.1,53,0.00,,---,0.00,VWS V14.01,2013-02-20 00:46:00,
2013-02-19 18:51:00,21.6,7.1,29.29,WSW,248,8.7,8.7,53,0.00,,---,0.00,VWS V14.01,2013-02-20 00:51:00,
2013-02-19 18:56:00,21.6,7.1,29.29,NW,315,7.8,10.3,53,0.00,,---,0.00,VWS V14.01,2013-02-20 00:56:00,
2013-02-19 19:01:00,21.6,7.1,29.29,WNW,292,6.0,7.8,53,0.00,,---,0.00,VWS V14.01,2013-02-20 01:01:00,
2013-02-19 19:06:00,21.4,6.9,29.32,West,270,10.1,10.1,53,0.00,,---,0.00,VWS V14.01,2013-02-20 01:06:00,
2013-02-19 19:11:00,21.4,6.9,29.32,West,270,12.3,14.3,53,0.00,,---,0.00,VWS V14.01,2013-02-20 01:11:00,
2013-02-19 19:16:00,21.4,6.9,29.32,NNW,338,8.7,9.4,53,0.00,,---,0.00,VWS V14.01,2013-02-20 01:16:00,
2013-02-19 19:21:00,21.4,6.9,29.32,NW,315,6.3,10.5,53,0.00,,---,0.00,VWS V14.01,2013-02-20 01:21:00,
2013-02-19 19:26:00,21.4,6.9,29.32,West,270,7.2,14.3,53,0.00,,---,0.00,VWS V14.01,2013-02-20 01:26:00,
2013-02-19 19:31:00,21.2,6.8,29.32,West,270,9.2,9.4,53,0.00,,---,0.00,VWS V14.01,2013-02-20 01:31:00,
2013-02-19 19:36:00,21.2,6.8,29.32,West,270,14.8,14.8,53,0.00,,---,0.00,VWS V14.01,2013-02-20 01:36:00,
2013-02-19 19:41:00,21.0,6.6,29.32,West,270,5.4,5.8,53,0.00,,---,0.00,VWS V14.01,2013-02-20 01:41:00,
2013-02-19 19:46:00,21.0,6.6,29.32,WSW,248,7.6,7.6,53,0.00,,---,0.00,VWS V14.01,2013-02-20 01:46:00,
2013-02-19 19:51:00,20.8,6.4,29.32,NW,315,8.1,8.1,53,0.00,,---,0.00,VWS V14.01,2013-02-20 01:51:00,
2013-02-19 19:56:00,20.8,6.4,29.32,WNW,292,11.0,11.0,53,0.00,,---,0.00,VWS V14.01,2013-02-20 01:56:00,
2013-02-19 20:01:00,20.7,6.2,29.32,NW,315,6.5,8.5,53,0.00,,---,0.00,VWS V14.01,2013-02-20 02:01:00,
2013-02-19 20:06:00,20.5,6.1,29.32,NW,315,12.3,12.3,53,0.00,,---,0.00,VWS V14.01,2013-02-20 02:06:00,
2013-02-19 20:11:00,20.5,6.1,29.32,WSW,248,5.4,11.0,53,0.00,,---,0.00,VWS V14.01,2013-02-20 02:11:00,
2013-02-19 20:16:00,20.3,5.9,29.32,NW,315,7.8,7.8,53,0.00,,---,0.00,VWS V14.01,2013-02-20 02:16:00,
2013-02-19 20:21:00,20.3,5.9,29.32,WNW,292,16.1,16.1,53,0.00,,---,0.00,VWS V14.01,2013-02-20 02:21:00,
2013-02-19 20:26:00,20.3,5.9,29.32,WNW,292,6.3,9.8,53,0.00,,---,0.00,VWS V14.01,2013-02-20 02:26:00,
2013-02-19 20:31:00,20.3,5.9,29.32,SSW,202,17.0,17.0,53,0.00,,---,0.00,VWS V14.01,2013-02-20 02:31:00,
2013-02-19 20:36:00,20.1,5.7,29.32,NNW,338,8.1,8.5,53,0.00,,---,0.00,VWS V14.01,2013-02-20 02:36:00,
2013-02-19 20:41:00,20.1,5.7,29.32,West,270,13.0,13.0,53,0.00,,---,0.00,VWS V14.01,2013-02-20 02:41:00,
2013-02-19 20:46:00,19.9,5.6,29.32,West,270,4.9,7.2,53,0.00,,---,0.00,VWS V14.01,2013-02-20 02:46:00,
2013-02-19 20:51:00,19.8,5.4,29.35,West,270,7.4,7.4,53,0.00,,---,0.00,VWS V14.01,2013-02-20 02:51:00,
2013-02-19 20:56:00,19.8,5.4,29.35,West,270,4.3,5.8,53,0.00,,---,0.00,VWS V14.01,2013-02-20 02:56:00,
2013-02-19 21:01:00,19.8,5.4,29.35,WNW,292,10.1,10.1,53,0.00,,---,0.00,VWS V14.01,2013-02-20 03:01:00,
2013-02-19 21:06:00,19.6,5.2,29.35,NW,315,5.8,5.8,53,0.00,,---,0.00,VWS V14.01,2013-02-20 03:06:00,
2013-02-19 21:11:00,19.6,5.2,29.35,West,270,10.5,10.5,53,0.00,,---,0.00,VWS V14.01,2013-02-20 03:11:00,
2013-02-19 21:16:00,19.4,5.5,29.35,West,270,6.9,8.5,54,0.00,,---,0.00,VWS V14.01,2013-02-20 03:16:00,
2013-02-19 21:21:00,19.2,4.9,29.35,West,270,7.8,7.8,53,0.00,,---,0.00,VWS V14.01,2013-02-20 03:21:00,
2013-02-19 21:26:00,19.0,4.7,29.35,WNW,292,7.8,8.5,53,0.00,,---,0.00,VWS V14.01,2013-02-20 03:26:00,
2013-02-19 21:31:00,19.0,4.7,29.35,WNW,292,9.6,9.6,53,0.00,,---,0.00,VWS V14.01,2013-02-20 03:31:00,
2013-02-19 21:36:00,19.2,5.3,29.35,North,0,3.6,5.4,54,0.00,,---,0.00,VWS V14.01,2013-02-20 03:36:00,
2013-02-19 21:42:00,19.0,4.7,29.35,NNE,22,7.4,8.5,53,0.00,,---,0.00,VWS V14.01,2013-02-20 03:42:00,
2013-02-19 21:47:00,18.7,4.8,29.35,WNW,292,5.8,6.3,54,0.00,,---,0.00,VWS V14.01,2013-02-20 03:47:00,
2013-02-19 21:52:00,18.7,4.8,29.35,WNW,292,2.9,4.7,54,0.00,,---,0.00,VWS V14.01,2013-02-20 03:52:00,
2013-02-19 21:57:00,18.7,4.8,29.35,West,270,6.3,6.3,54,0.00,,---,0.00,VWS V14.01,2013-02-20 03:57:00,
2013-02-19 22:02:00,18.7,4.8,29.35,WNW,292,6.3,6.3,54,0.00,,---,0.00,VWS V14.01,2013-02-20 04:02:00,
2013-02-19 22:07:00,18.5,4.6,29.35,NNW,338,6.5,6.5,54,0.00,,---,0.00,VWS V14.01,2013-02-20 04:07:00,
2013-02-19 22:12:00,18.7,4.8,29.35,NW,315,4.9,4.9,54,0.00,,---,0.00,VWS V14.01,2013-02-20 04:12:00,
2013-02-19 22:17:00,18.5,4.6,29.35,NNW,338,7.8,10.1,54,0.00,,---,0.00,VWS V14.01,2013-02-20 04:17:00,
2013-02-19 22:22:00,18.3,4.5,29.35,WNW,292,3.6,6.9,54,0.00,,---,0.00,VWS V14.01,2013-02-20 04:22:00,
2013-02-19 22:27:00,18.3,4.5,29.35,NNW,338,7.8,7.8,54,0.00,,---,0.00,VWS V14.01,2013-02-20 04:27:00,
2013-02-19 22:32:00,18.3,4.5,29.35,WNW,292,5.6,8.1,54,0.00,,---,0.00,VWS V14.01,2013-02-20 04:32:00,
2013-02-19 22:37:00,18.1,4.3,29.38,NW,315,4.9,6.9,54,0.00,,---,0.00,VWS V14.01,2013-02-20 04:37:00,
2013-02-19 22:42:00,17.8,4.0,29.38,NNE,22,7.4,14.8,54,0.00,,---,0.00,VWS V14.01,2013-02-20 04:42:00,
2013-02-19 22:47:00,17.8,4.0,29.38,NNW,338,4.9,9.2,54,0.00,,---,0.00,VWS V14.01,2013-02-20 04:47:00,
2013-02-19 22:52:00,17.8,4.0,29.38,WSW,248,2.9,2.9,54,0.00,,---,0.00,VWS V14.01,2013-02-20 04:52:00,
2013-02-19 22:57:00,17.6,4.2,29.38,West,270,9.6,9.6,55,0.00,,---,0.00,VWS V14.01,2013-02-20 04:57:00,
2013-02-19 23:00:00,17.6,4.2,29.38,NNW,338,6.3,6.3,55,0.00,,---,0.00,VWS V14.01,2013-02-20 05:00:00,
2013-02-19 23:05:00,17.4,4.0,29.38,NW,315,5.8,5.8,55,0.00,,---,0.00,VWS V14.01,2013-02-20 05:05:00,
2013-02-19 23:11:00,17.4,4.0,29.38,NW,315,7.4,7.4,55,0.00,,---,0.00,VWS V14.01,2013-02-20 05:11:00,
2013-02-19 23:16:00,17.4,4.0,29.38,NNE,22,7.6,7.6,55,0.00,,---,0.00,VWS V14.01,2013-02-20 05:16:00,
2013-02-19 23:21:00,17.4,4.0,29.38,NW,315,5.6,5.6,55,0.00,,---,0.00,VWS V14.01,2013-02-20 05:21:00,
2013-02-19 23:26:00,17.4,4.0,29.38,WSW,248,4.3,4.3,55,0.00,,---,0.00,VWS V14.01,2013-02-20 05:26:00,
2013-02-19 23:31:00,17.4,4.0,29.38,WNW,292,7.6,7.6,55,0.00,,---,0.00,VWS V14.01,2013-02-20 05:31:00,
2013-02-19 23:36:00,16.9,3.5,29.41,NNW,338,7.4,9.8,55,0.00,,---,0.00,VWS V14.01,2013-02-20 05:36:00,
2013-02-19 23:41:00,16.7,3.3,29.41,NNW,338,8.7,8.7,55,0.00,,---,0.00,VWS V14.01,2013-02-20 05:41:00,
2013-02-19 23:46:00,16.9,3.5,29.41,NW,315,4.9,4.9,55,0.00,,---,0.00,VWS V14.01,2013-02-20 05:46:00,
2013-02-19 23:51:00,16.5,3.2,29.41,WSW,248,5.8,5.8,55,0.00,,---,0.00,VWS V14.01,2013-02-20 05:51:00,
2013-02-19 23:57:00,16.3,3.0,29.41,NW,315,3.6,6.3,55,0.00,,---,0.00,VWS V14.01,2013-02-20 05:57:00,